Location: Moscow
(55.7500°N, 37.5830°E)
Time: 07:15:27
(UTC+03:00)

A-11 Canister half - Pass Details

Date: 08 December 2021
Orbit: 1524 x 1684 km, 47.3° (Epoch: 17 January)

Event Time Altitude Azimuth Distance (km) Brightness Sun altitude
Exits shadow 06:58:34 13° 268° (W) 3,651 10.4 -13.6°
Maximum altitude 07:05:38 30° 217° (SW) 2,635 10.1 -12.7°
Drops below altitude 10° 07:13:38 10° 162° (SSE) 3,822 11.7 -11.7°
Sets 07:17:10 0° 152° (SSE) 4,780 12.5 -11.2°
